カタログに戻る

COSMOS 1109 DEB

LostHEO
NORAD 27894·DEBRIS·🇷🇺 Russia

打ち上げ Jun 27, 1979 から Plesetsk Cosmodrome

Loading…

次のパス (今後24時間)

TLE

古いSource: Space-Track

元期: Feb 25, 2014, 04:10 UTC

1 27894U 79058P   14056.17361373 -.00000782  00000-0  00000+0 0  9993
2 27894  66.9768 137.4125 6863302   9.3949   2.0922  1.98522654 78810

AllMySatでCOSMOS 1109 DEBをリアルタイム追跡

Download on the App Store